Precipitable_Water
0.46 0.34 0.26 0.31 0.35 0.34 0.32 0.29 0.28 0.32 0.38 0.32 0.28 0.28 0.32 0.37 0.38 0.37 0.38 0.40 0.41 0.42 0.48 0.53 0.56 0.62 0.69 0.72 0.73 0.77 0.80 0.89 0.99 1.01 1.04 1.13 1.17 1.20 1.20 1.26 1.30 1.32 1.30 1.24
0.35 0.26 0.34 0.36 0.36 0.33 0.31 0.27 0.26 0.31 0.34 0.30 0.26 0.20 0.26 0.28 0.27 0.31 0.32 0.33 0.35 0.36 0.39 0.43 0.50 0.56 0.62 0.66 0.72 0.76 0.79 0.88 0.98 1.06 1.04 1.07 1.11 1.16 1.20 1.19 1.24 1.27 1.29 1.22
0.27 0.30 0.34 0.33 0.31 0.29 0.29 0.26 0.26 0.25 0.30 0.30 0.26 0.17 0.21 0.25 0.26 0.29 0.31 0.33 0.34 0.35 0.35 0.36 0.40 0.49 0.57 0.61 0.67 0.73 0.80 0.87 0.95 1.03 1.07 1.01 0.98 1.03 1.03 1.04 1.10 1.16 1.23 1.18
0.32 0.36 0.31 0.30 0.28 0.30 0.23 0.32 0.31 0.29 0.27 0.20 0.32 0.14 0.20 0.25 0.25 0.27 0.30 0.32 0.34 0.35 0.38 0.37 0.37 0.42 0.51 0.59 0.67 0.72 0.80 0.84 0.93 0.99 0.91 0.90 0.91 0.93 1.03 1.06 1.06 1.10 1.18 1.14
0.27 0.30 0.31 0.29 0.31 0.36 0.30 0.37 0.34 0.34 0.30 0.28 0.27 0.24 0.17 0.26 0.24 0.27 0.31 0.34 0.36 0.37 0.36 0.37 0.37 0.38 0.47 0.57 0.67 0.71 0.79 0.84 0.88 0.92 0.92 0.97 0.99 1.03 1.04 1.05 1.07 1.04 1.06 0.93
0.33 0.43 0.39 0.37 0.40 0.41 0.42 0.37 0.35 0.34 0.29 0.17 0.20 0.22 0.12 0.17 0.22 0.26 0.29 0.31 0.34 0.36 0.38 0.37 0.39 0.41 0.43 0.54 0.68 0.75 0.77 0.80 0.86 0.89 0.93 0.99 0.97 0.97 1.00 1.00 0.99 0.99 0.99 0.88
0.34 0.35 0.42 0.45 0.36 0.42 0.38 0.29 0.18 0.16 0.16 0.12 0.21 0.19 0.14 0.17 0.23 0.25 0.27 0.30 0.33 0.35 0.37 0.38 0.42 0.41 0.45 0.50 0.63 0.75 0.79 0.78 0.84 0.87 0.93 0.97 0.97 1.04 1.06 1.01 0.97 0.98 0.82 0.81
0.24 0.21 0.35 0.45 0.34 0.28 0.28 0.26 0.17 0.11 0.13 0.15 0.25 0.15 0.16 0.24 0.29 0.27 0.27 0.30 0.33 0.37 0.40 0.39 0.43 0.47 0.48 0.52 0.61 0.75 0.79 0.81 0.85 0.88 0.90 0.93 0.99 1.02 0.98 0.98 0.93 0.92 0.78 0.72
0.26 0.25 0.38 0.38 0.37 0.34 0.29 0.23 0.30 0.23 0.25 0.20 0.20 0.20 0.24 0.27 0.27 0.28 0.27 0.30 0.32 0.40 0.40 0.43 0.40 0.47 0.52 0.61 0.64 0.74 0.80 0.84 0.86 0.89 0.87 0.87 0.92 0.95 1.02 0.92 0.96 0.82 0.78 0.69
0.35 0.25 0.33 0.35 0.38 0.36 0.31 0.36 0.25 0.29 0.17 0.16 0.18 0.20 0.21 0.26 0.27 0.27 0.27 0.30 0.36 0.38 0.42 0.46 0.43 0.45 0.52 0.65 0.71 0.80 0.84 0.84 0.86 0.87 0.86 0.87 0.89 0.94 0.92 0.96 0.87 0.80 0.71 0.65
0.40 0.32 0.28 0.30 0.25 0.24 0.31 0.30 0.34 0.33 0.30 0.22 0.19 0.20 0.30 0.30 0.28 0.28 0.26 0.32 0.35 0.39 0.43 0.49 0.49 0.49 0.60 0.71 0.74 0.79 0.81 0.81 0.85 0.86 0.85 0.89 0.85 0.87 0.95 0.88 0.86 0.71 0.66 0.60
0.40 0.35 0.19 0.21 0.32 0.38 0.38 0.36 0.38 0.29 0.28 0.32 0.29 0.22 0.37 0.36 0.33 0.34 0.35 0.34 0.39 0.42 0.48 0.56 0.56 0.54 0.62 0.69 0.72 0.76 0.79 0.83 0.86 0.86 0.88 0.88 0.90 0.87 0.86 0.84 0.71 0.65 0.61 0.61
0.43 0.27 0.18 0.23 0.35 0.41 0.39 0.41 0.41 0.42 0.39 0.30 0.27 0.24 0.39 0.39 0.39 0.37 0.33 0.34 0.37 0.44 0.51 0.59 0.57 0.53 0.62 0.64 0.68 0.76 0.80 0.83 0.88 0.91 0.87 0.87 0.87 0.85 0.76 0.70 0.64 0.62 0.62 0.61
0.42 0.33 0.28 0.24 0.30 0.39 0.38 0.43 0.46 0.42 0.32 0.31 0.30 0.28 0.35 0.40 0.41 0.40 0.40 0.39 0.43 0.48 0.57 0.61 0.57 0.57 0.61 0.65 0.68 0.70 0.75 0.84 0.89 0.88 0.90 0.87 0.83 0.78 0.70 0.64 0.63 0.63 0.62 0.61
0.41 0.31 0.37 0.40 0.43 0.44 0.44 0.45 0.46 0.41 0.40 0.32 0.29 0.31 0.36 0.43 0.46 0.45 0.44 0.45 0.46 0.54 0.60 0.61 0.57 0.56 0.62 0.66 0.67 0.73 0.80 0.83 0.89 0.90 0.86 0.81 0.79 0.71 0.66 0.64 0.64 0.63 0.61 0.63
0.47 0.37 0.43 0.39 0.45 0.48 0.43 0.49 0.49 0.47 0.44 0.39 0.36 0.30 0.42 0.45 0.45 0.42 0.42 0.45 0.54 0.61 0.62 0.62 0.57 0.59 0.69 0.73 0.74 0.81 0.84 0.87 0.88 0.85 0.82 0.78 0.72 0.68 0.66 0.65 0.61 0.62 0.63 0.63
0.45 0.43 0.40 0.34 0.46 0.44 0.39 0.47 0.49 0.48 0.44 0.40 0.30 0.35 0.43 0.45 0.48 0.53 0.59 0.63 0.64 0.65 0.66 0.60 0.60 0.64 0.68 0.79 0.83 0.84 0.87 0.85 0.82 0.82 0.77 0.74 0.70 0.66 0.62 0.61 0.62 0.62 0.63 0.62
0.46 0.46 0.43 0.38 0.41 0.30 0.48 0.60 0.57 0.52 0.46 0.45 0.41 0.45 0.51 0.57 0.65 0.67 0.69 0.65 0.67 0.71 0.66 0.69 0.72 0.74 0.80 0.85 0.86 0.87 0.84 0.83 0.81 0.74 0.72 0.68 0.62 0.61 0.62 0.62 0.62 0.62 0.61 0.61
0.55 0.48 0.40 0.33 0.35 0.42 0.49 0.53 0.52 0.54 0.52 0.61 0.53 0.54 0.56 0.64 0.65 0.66 0.75 0.79 0.84 0.82 0.80 0.80 0.83 0.85 0.85 0.86 0.85 0.82 0.78 0.76 0.71 0.65 0.62 0.61 0.62 0.62 0.62 0.61 0.60 0.61 0.61 0.58
0.57 0.55 0.43 0.39 0.32 0.28 0.44 0.54 0.60 0.67 0.46 0.68 0.70 0.65 0.63 0.65 0.51 0.58 0.77 0.86 0.84 0.81 0.82 0.82 0.82 0.83 0.81 0.79 0.76 0.72 0.67 0.64 0.62 0.62 0.62 0.63 0.63 0.61 0.61 0.62 0.62 0.62 0.54 0.43
0.43 0.43 0.37 0.37 0.34 0.40 0.50 0.57 0.55 0.36 0.43 0.65 0.72 0.74 0.72 0.66 0.63 0.69 0.77 0.81 0.88 0.84 0.82 0.79 0.77 0.74 0.73 0.72 0.70 0.66 0.65 0.63 0.63 0.63 0.63 0.63 0.63 0.62 0.63 0.62 0.57 0.45 0.34 0.30
0.40 0.37 0.37 0.40 0.35 0.31 0.56 0.55 0.43 0.50 0.59 0.61 0.70 0.77 0.78 0.75 0.72 0.76 0.78 0.78 0.77 0.77 0.78 0.79 0.77 0.74 0.73 0.72 0.69 0.64 0.63 0.65 0.66 0.65 0.63 0.63 0.64 0.61 0.57 0.46 0.36 0.32 0.29 0.28
0.38 0.45 0.41 0.44 0.43 0.56 0.62 0.60 0.64 0.60 0.58 0.60 0.65 0.77 0.81 0.78 0.77 0.75 0.74 0.77 0.78 0.79 0.78 0.77 0.75 0.71 0.69 0.69 0.69 0.68 0.67 0.65 0.64 0.63 0.62 0.60 0.54 0.45 0.38 0.33 0.29 0.28 0.28 0.27
0.50 0.56 0.47 0.49 0.54 0.57 0.61 0.65 0.66 0.63 0.62 0.63 0.66 0.72 0.74 0.72 0.72 0.71 0.73 0.74 0.74 0.74 0.73 0.71 0.69 0.67 0.65 0.66 0.65 0.65 0.64 0.63 0.61 0.57 0.49 0.44 0.39 0.34 0.30 0.28 0.28 0.28 0.28 0.25
0.51 0.53 0.50 0.50 0.56 0.59 0.61 0.65 0.66 0.65 0.67 0.66 0.67 0.68 0.68 0.67 0.69 0.71 0.71 0.72 0.72 0.72 0.71 0.70 0.69 0.67 0.66 0.65 0.63 0.62 0.58 0.54 0.48 0.44 0.40 0.36 0.31 0.28 0.27 0.27 0.28 0.28 0.26 0.25
0.50 0.46 0.43 0.44 0.58 0.59 0.60 0.67 0.69 0.66 0.67 0.68 0.67 0.67 0.68 0.69 0.68 0.70 0.70 0.71 0.71 0.71 0.71 0.70 0.68 0.67 0.62 0.57 0.55 0.52 0.49 0.44 0.40 0.36 0.31 0.28 0.27 0.26 0.28 0.28 0.27 0.26 0.24 0.23
Wind_Speed
18 18 19 20 21 20 16 18 21 22 22 26 29 33 32 32 35 35 36 36 37 38 37 37 38 37 38 37 36 33 32 30 29 30 31 30 29 28 27 27 26 24 23 22
16 19 19 17 19 21 22 24 26 26 25 28 31 39 37 38 40 39 39 39 39 39 40 40 39 39 39 38 37 35 33 32 31 30 30 30 29 28 27 26 25 24 24 22
17 13 13 19 19 21 23 25 26 28 29 32 35 41 32 29 32 34 36 38 39 40 39 39 41 41 39 39 38 36 34 32 31 30 30 28 27 27 26 25 25 24 23 22
18 20 17 17 20 21 24 22 26 27 26 26 23 34 37 36 34 33 33 33 33 34 36 38 39 41 40 39 38 37 34 32 31 30 30 30 28 28 27 26 25 24 22 21
14 14 17 20 21 20 20 21 23 25 29 32 33 30 36 28 33 32 33 33 32 31 33 35 36 39 39 39 38 36 34 33 31 30 29 30 28 26 26 25 24 23 22 21
19 16 17 19 20 22 18 22 25 26 25 28 32 30 38 33 32 30 25 23 26 28 30 32 34 35 38 39 38 36 34 33 32 30 29 29 28 27 26 25 24 23 22 20
17 22 19 19 19 20 21 17 18 18 19 24 20 25 35 28 26 30 35 32 29 29 30 31 32 34 36 38 37 36 34 32 31 30 28 28 28 27 26 25 24 23 21 21
14 13 17 16 19 15 18 18 17 18 19 22 17 23 23 24 29 32 34 32 31 29 28 30 31 32 35 37 38 36 34 32 31 29 27 26 27 27 25 24 23 22 21 20
12 13 12 14 13 16 14 19 20 25 29 27 24 31 34 31 30 31 31 31 28 25 25 25 30 31 33 35 37 36 34 33 31 28 26 25 26 26 25 23 22 21 20 20
11 13 13 12 15 19 18 13 13 17 19 23 25 30 26 26 23 22 22 24 23 24 23 24 27 30 32 33 35 36 34 32 31 29 26 24 24 25 24 23 22 21 20 20
12 12 9 11 15 14 14 17 18 21 22 21 28 24 19 24 21 23 20 21 21 21 21 23 25 28 31 31 34 34 34 32 31 28 26 24 23 24 24 22 21 20 20 20
14 12 13 16 14 16 19 20 23 22 24 26 32 38 23 24 20 16 16 19 21 21 20 22 24 27 29 30 32 34 33 32 30 28 26 24 23 23 23 22 21 20 20 20
11 9 9 9 7 11 16 21 27 30 31 32 26 28 14 15 19 16 17 20 21 21 20 21 25 27 28 29 31 33 32 31 28 27 25 23 23 22 22 21 20 20 20 20
11 10 11 13 16 14 18 23 25 26 26 31 31 35 28 21 25 26 25 22 20 20 20 22 26 27 28 28 30 31 31 30 28 26 24 23 22 21 21 20 20 20 20 21
10 10 13 17 21 23 24 26 27 25 28 24 30 24 23 21 21 20 18 17 17 18 20 24 25 27 27 27 29 29 29 28 27 25 23 22 21 20 20 19 19 20 20 22
10 7 8 15 18 18 20 20 20 20 19 18 21 20 17 14 11 11 13 13 14 16 21 23 25 26 25 26 28 28 27 26 25 23 22 20 19 19 19 19 19 20 21 22
8 6 6 8 12 18 9 11 15 16 8 8 5 6 5 6 6 5 7 9 11 16 21 23 25 25 25 25 27 26 26 25 23 22 20 19 18 18 18 18 19 20 21 24
6 4 4 7 10 4 8 12 12 11 9 3 3 4 5 4 4 2 2 7 12 18 20 21 22 23 24 25 25 25 24 22 21 19 18 18 17 17 17 17 19 20 22 24
12 8 4 3 6 8 8 12 11 10 9 7 3 3 4 4 5 10 10 11 16 19 21 22 23 23 23 23 23 23 21 20 19 18 17 16 16 15 16 17 19 21 23 25
8 10 6 3 4 4 8 12 10 5 7 9 4 1 3 6 9 10 9 14 19 21 22 22 22 21 21 21 21 20 19 18 16 15 15 14 14 15 16 17 19 21 23 25
5 4 6 5 3 6 6 13 7 7 7 8 6 6 6 8 10 10 12 14 18 20 20 20 19 19 19 19 18 17 16 15 14 13 12 12 13 14 15 17 19 21 24 26
6 4 2 2 2 4 5 8 7 8 7 5 2 6 9 12 12 14 14 15 16 17 17 16 16 16 16 16 16 14 12 12 11 10 10 11 12 13 15 17 19 22 24 27
5 5 0 2 3 4 6 5 7 8 7 3 2 5 8 10 9 10 11 12 12 14 14 14 15 14 13 13 12 11 10 9 9 8 9 10 11 13 16 18 21 23 26 28
6 6 4 4 2 4 4 3 4 6 6 4 3 5 6 6 7 9 10 11 11 11 11 12 12 12 11 10 10 9 8 8 7 7 8 10 12 15 17 20 22 25 27 29
7 6 7 7 9 4 1 1 2 4 5 5 5 5 6 7 9 9 10 10 10 11 11 11 11 10 9 9 8 7 7 6 6 8 9 12 14 17 19 21 23 26 28 30
11 10 9 6 4 4 2 1 1 1 2 3 5 6 7 8 9 10 10 10 10 10 10 10 10 10 9 8 6 5 5 6 7 9 11 13 16 17 20 23 25 26 28 31
Wind_Direction
216 221 224 228 231 240 250 252 256 258 263 273 267 267 268 267 265 264 262 259 257 254 251 248 244 242 241 240 241 241 242 242 244 243 239 238 238 241 243 243 243 243 244 247
218 230 235 239 240 245 252 259 263 269 269 270 274 273 273 269 266 264 262 260 258 255 252 248 244 241 240 239 239 239 239 240 242 243 239 238 238 241 242 241 241 241 242 248
225 231 240 234 242 249 254 259 265 270 277 275 277 275 270 269 267 266 263 260 258 255 252 248 243 240 239 238 237 237 237 238 240 239 235 236 237 238 240 239 238 240 240 245
239 243 242 243 249 252 264 265 267 271 275 275 278 277 275 274 271 267 266 261 257 254 250 247 243 238 236 236 234 234 234 235 236 234 233 233 237 237 237 235 236 237 239 245
237 240 240 244 252 254 265 267 269 272 275 279 269 272 274 270 272 267 266 263 259 255 251 245 241 237 234 232 231 230 231 231 232 231 233 232 233 234 233 233 232 235 239 243
246 247 251 255 260 256 272 270 273 274 276 273 270 260 276 277 272 267 258 258 255 257 249 245 241 236 231 229 228 227 227 228 228 229 232 230 229 229 229 229 231 234 237 242
247 249 255 257 261 261 260 270 277 275 268 274 285 267 270 277 267 263 266 269 259 257 251 245 239 233 228 225 224 223 223 224 224 225 228 228 227 226 227 226 229 230 237 243
248 256 241 250 250 262 249 256 268 277 276 284 291 275 281 282 272 268 262 258 255 255 252 243 235 231 226 222 220 218 219 220 219 222 224 226 224 224 226 226 227 232 238 243
244 258 258 250 259 252 264 260 265 278 278 280 274 278 286 285 277 267 261 254 247 247 251 245 234 229 223 220 217 215 215 216 217 219 222 223 222 222 222 223 226 233 239 242
251 263 260 260 262 262 258 266 268 268 281 281 279 278 279 289 287 271 259 245 245 247 250 244 232 225 220 217 213 211 212 214 214 216 219 221 220 220 221 222 228 234 240 244
242 258 264 262 256 249 251 264 268 278 272 283 289 282 291 291 281 268 256 242 246 247 248 241 229 218 214 211 209 208 209 210 211 214 216 216 217 217 220 225 229 236 240 248
240 261 258 258 263 260 263 271 262 271 275 275 276 283 289 282 274 264 251 256 247 247 244 236 221 210 207 206 205 205 205 207 209 210 211 213 214 217 220 225 232 237 244 254
228 241 273 276 273 273 275 277 271 273 280 276 279 286 286 283 274 258 268 264 253 244 235 225 211 206 203 203 202 202 202 204 205 207 209 211 213 217 223 228 234 241 249 258
220 248 257 272 286 298 289 288 284 277 280 282 270 281 274 270 271 272 270 262 250 238 224 213 205 201 200 200 198 198 200 202 203 206 207 209 213 221 225 231 238 246 255 263
226 259 265 274 286 292 292 294 293 284 276 274 283 281 287 280 271 267 258 249 241 229 212 201 197 195 195 193 193 194 196 197 200 203 205 210 216 222 227 234 243 251 260 268
232 265 288 293 291 293 295 302 307 302 295 276 275 282 284 291 283 256 246 240 228 211 196 191 189 187 188 189 189 189 191 195 199 201 205 212 219 225 231 239 248 256 266 274
230 260 293 301 321 315 320 337 330 330 317 310 287 283 315 301 302 268 242 213 204 185 181 181 181 182 184 183 183 185 189 192 197 201 209 216 222 228 235 243 253 263 272 279
228 238 278 310 331 348 349 351 342 345 353 329 307 332 346 353 344 349 141 165 164 161 165 168 170 173 174 175 178 181 185 191 196 204 211 218 223 230 240 251 261 270 278 285
226 239 264 306 338 310 353 12 8 16 16 14 336 338 5 16 46 101 100 123 136 143 147 150 156 161 165 170 174 179 184 191 198 206 211 217 226 237 248 259 269 277 284 289
212 223 223 295 331 344 3 358 1 21 23 22 14 357 73 71 89 96 96 120 128 133 138 144 150 156 161 168 173 178 184 190 197 204 212 222 235 247 259 268 276 284 290 294
169 171 213 244 283 298 331 348 11 14 15 13 50 75 124 98 95 104 105 106 129 137 139 144 149 154 160 166 171 176 183 188 196 205 218 233 248 258 268 277 284 290 294 298
187 180 189 196 246 301 347 350 11 356 350 352 42 94 109 109 106 108 107 111 120 129 137 144 147 152 158 163 165 169 177 188 200 213 230 246 259 270 278 285 291 296 299 302
200 199 240 235 281 320 321 333 353 356 344 352 173 134 127 121 115 119 123 125 127 131 136 141 143 146 152 160 168 174 184 195 209 226 243 259 270 280 288 293 297 301 304 306
214 220 248 319 337 302 298 313 352 7 21 40 151 160 164 158 149 136 134 137 140 141 142 145 148 149 154 163 170 178 190 204 220 240 259 273 283 290 295 300 303 305 307 309
236 233 252 269 292 298 47 6 30 41 49 66 94 126 138 141 146 144 142 143 145 145 148 151 154 156 158 164 171 181 195 219 244 263 277 286 292 298 301 304 306 308 309 311
238 247 245 257 279 284 280 247 7 45 65 83 110 117 122 134 140 143 142 142 143 144 147 148 149 150 155 161 174 200 231 252 269 282 290 295 299 303 306 308 309 310 312 314